Preview of NWS' New Version of Forecast
This preview is not operational and should not be used for support decisions.

Regional Weather Roundup (RWR)

Issued by National Weather Service (NWS)

                            
000
ASUS45 KCYS 201510
RWRWY 

WYOMING REGIONAL WEATHER ROUNDUP
NATIONAL WEATHER SERVICE CHEYENNE WY
900 AM MDT TUE AUG 20 2019

NOTE:  "FAIR" INDICATES FEW OR NO CLOUDS BELOW 12,000 FEET
WITH NO SIGNIFICANT WEATHER AND/OR OBSTRUCTIONS TO VISIBILITY.

WYZ001-201600-
YELLOWSTONE NATIONAL PARK
  
CITY           SKY/WX    TMP DP  RH WIND       PRES   REMARKS
LK YELLOWSTONE   N/A     56  44  64 CALM      30.40R                  
W YELLOWSTONE  NOT AVBL                                               

$$
WYZ002>013-054>058-071-098>099-201600-
NORTHERN WYOMING
  
CITY           SKY/WX    TMP DP  RH WIND       PRES   REMARKS
JACKSON        FAIR      55  35  47 CALM      30.32R                  
CODY           FAIR      68  48  48 CALM      30.20R                  
GREYBULL       FAIR      69  44  40 CALM      30.11R                  
WORLAND        FAIR      69  48  47 SW5       30.14R                  
SHERIDAN       FAIR      70  46  42 CALM      30.16R                  
BUFFALO        FAIR      72  44  36 NW3       30.22R                  
GILLETTE       FAIR      71  52  50 CALM      30.15R                  
HULETT         FAIR      77  50  38 NE10      30.16                   
NEWCASTLE      FAIR      79  45  29 SE3G16    30.12                   

$$
WYZ014>020-022>026-101>103-201600-
CENTRAL WYOMING
  
CITY           SKY/WX    TMP DP  RH WIND       PRES   REMARKS
BIG PINEY      FAIR      56  30  37 E3        30.34R                  
PINEDALE       FAIR      52  36  54 NW5       30.35                   
DUBOIS         FAIR      59  30  33 NW12      30.33                   
LANDER         FAIR      70  37  29 E6        30.22R                  
RIVERTON       FAIR      69  38  32 NE6       30.21R                  
CASPER         FAIR      72  47  40 W5        30.20R                  
DOUGLAS        FAIR      71  42  35 NW9       30.18R                  

$$
WYZ021-027>030-104>119-201600-
SOUTHERN WYOMING
  
CITY           SKY/WX    TMP DP  RH WIND       PRES   REMARKS
EVANSTON       FAIR      64  24  21 S5        30.32R                  
KEMMERER       FAIR      61  30  31 N8        30.34                   
ROCK SPRINGS   FAIR      65  25  22 NE3       30.31R                  
DIXON          FAIR      64  30  28 E7        30.33S                  
RAWLINS        FAIR      68  28  22 CALM      30.31S                  
SARATOGA       FAIR      66  32  28 SE9       30.35R                  
LARAMIE        FAIR      67  31  26 S8        30.34R                  
CHEYENNE       FAIR      76  35  22 W8        30.22S                  
TORRINGTON     FAIR      75  65  70 NW6       30.09R                  
PINE BLUFFS    FAIR      63  55  77 NE3       30.15R                  

$$